Location: Cardiff
(53.7833°N, 113.6000°W)
Time: 16:07:19
(UTC+00:00)

RS-15 - Pass Details

Date: 12 December 2023
Orbit: 1893 x 2151 km, 64.8° (Epoch: 20 February)

Event Time Altitude Azimuth Distance (km) Brightness Sun altitude
Exits shadow 13:34:13 22° 273° (W) 3,503 8.7 -17.6°
Maximum altitude 13:35:52 22° 262° (W) 3,442 8.8 -17.3°
Drops below altitude 10° 13:43:30 10° 216° (SW) 4,294 9.6 -16.2°
Sets 13:47:43 0° 203° (SSW) 5,271 10.3 -15.6°
